Location: Wildlife_Club
(35.6000°N, 81.4330°W)
Time: 06:32:31
(UTC-04:00)

A-11 Canister half - Pass Details

Date: 24 June 2019
Orbit: 1526 x 1683 km, 47.3° (Epoch: 18 July)

Event Time Altitude Azimuth Distance (km) Brightness Sun altitude
Exits shadow 02:02:49 12° 121° (ESE) 3,654 10.8 -30.4°
Drops below altitude 10° 02:05:26 10° 105° (ESE) 3,763 11.0 -30.3°
Sets 02:11:29 0° 75° (ENE) 4,718 11.9 -30.1°
